Location: Beretisa Nizhnyaya
(42.1989°N, 43.3917°E)
Time: 05:01:31
(UTC+00:00)

Daily predictions for brighter satellites

Satellite Brightness Start Highest point End
(mag) Time Altitude Azimuth Time Altitude Azimuth Time Altitude Azimuth
Cosmos 1606 Rocket 3.8 00:05:07 37° SSE 00:06:48 69° E 00:11:15 10° NNE
Cosmos 1602 Rocket 4.1 00:03:38 10° NNW 00:07:20 40° WNW 00:07:20 40° WNW
IDEFIX/ARIANE 42P 2.9 00:04:10 10° NNE 00:09:20 61° E 00:12:32 23° S
Cosmos 2263 Rocket 3.4 00:14:58 23° W 00:16:42 27° NW 00:21:24 10° N
Cosmos 1844 4.2 00:13:36 23° S 00:17:08 58° ESE 00:22:47 10° NNE
Cosmos 1048 Rocket 4.0 00:13:13 10° NNW 00:18:17 58° WSW 00:21:15 25° S
IRS-P3 4.4 00:13:25 10° N 00:18:37 53° WNW 00:20:35 35° SW
Cosmos 1908 3.6 00:21:07 44° W 00:21:27 46° W 00:25:14 10° N
Cosmos 1726 Rocket 3.6 00:19:18 29° S 00:21:32 79° E 00:26:01 10° N
Meteor 1-16 Rocket 4.5 00:19:58 35° SW 00:21:48 48° WNW 00:27:13 10° N
Cosmos 2228 2.9 00:22:40 38° SSW 00:24:18 74° W 00:28:43 10° N
SL-08 R/B 3.6 00:26:27 29° SSW 00:28:38 50° W 00:33:26 10° NNW
Cosmos 2285 Rocket 4.5 00:26:07 29° WSW 00:28:55 45° WNW 00:34:57 10° N
ADEOS II 3.1 00:27:15 10° N 00:31:49 31° WNW 00:33:36 25° W
Meteor 1-28 Rocket 3.6 00:31:36 39° WSW 00:31:53 40° W 00:35:30 10° NNW
NOSS 2-2 (C) 3.2 00:30:54 37° SSW 00:32:08 66° ESE 00:35:53 10° NE
Cosmos 1553 Rocket 4.0 00:30:48 26° SSW 00:34:14 58° W 00:40:17 10° N
Spot 4 Rocket 4.0 00:29:07 10° N 00:34:17 76° WNW 00:37:34 23° SSW
Cosmos 1356 Rocket 3.3 00:34:21 31° SSW 00:36:15 72° W 00:40:22 10° N
Cosmos 2278 Rocket 4.4 00:34:26 10° SSE 00:38:33 21° E 00:42:41 10° NE
ATLAS CENTAUR R/B 2.8 00:37:35 20° WNW 00:38:55 24° NW 00:42:11 10° N
Cosmos 1900 4.3 00:33:48 10° NW 00:38:57 71° WSW 00:44:03 10° SSE
Cosmos 1844 Rocket 2.6 00:36:02 25° SSW 00:39:20 77° WNW 00:44:56 10° NNE
Cosmos 1726 4.5 00:39:49 11° WNW 00:39:49 11° WNW 00:40:24 10° NW
CZ-2C R/B 2.6 00:35:42 10° NNE 00:39:30 85° ESE 00:41:45 23° S
Cosmos 1269 Rocket 4.1 00:34:44 10° NNW 00:40:03 80° ENE 00:45:21 10° SSE
Cosmos 1300 2.6 00:39:38 24° S 00:41:52 87° WNW 00:45:42 10° N
Meteor 1-11 4.2 00:39:21 10° NNW 00:45:01 61° W 00:50:33 10° S
ERS-2 2.6 00:42:29 10° SSE 00:46:05 62° ENE 00:49:42 10° N
SL-08 ROCKET BODY 4.4 00:40:51 10° NNW 00:46:47 62° W 00:52:35 10° S
COSMOS 2441 4.4 00:42:23 10° NNE 00:47:13 83° E 00:51:45 12° S
Cosmos 1745 Rocket 4.0 00:41:24 10° NNW 00:47:36 67° W 00:53:42 10° S
CZ-4C R/B 2.7 00:47:32 10° S 00:50:48 80° WSW 00:54:12 10° NNW
CSL-04 DEB 4.2 00:48:32 10° S 00:52:25 65° WSW 00:56:22 10° NNW
ARIANE 5 R/B 3.3 00:48:07 10° N 00:52:53 37° WNW 00:55:51 20° WSW
Meteor 2-15 4.4 00:47:44 13° SSW 00:53:10 71° W 00:59:14 10° N
Lacrosse 5 rocket 3.3 00:53:20 10° S 00:57:05 26° SE 01:00:54 10° ENE
SeaSat 1 3.5 00:52:39 10° NE 00:57:22 43° ESE 01:02:02 10° S
BREEZE-M R/B 3.2 01:00:31 10° WNW 01:02:45 86° SSW 01:10:01 10° ESE
Delta 2 Rocket 4.3 01:03:16 19° SSW 01:04:04 21° SSW 01:06:52 10° SE
S3M 4.4 01:00:52 14° SSW 01:06:05 46° WNW 01:12:13 10° N
Cosmos 2058 Rocket 3.3 01:04:11 14° SSW 01:07:53 51° WNW 01:12:14 10° N
H-2A R/B 2.1 01:04:31 10° S 01:08:30 50° W 01:12:30 10° NNW
USA 215 3.5 01:04:10 10° NE 01:10:36 61° NW 01:16:30 13° WSW
CZ-2C R/B 2.4 01:09:58 10° NNE 01:14:35 80° ESE 01:19:19 10° S
In-Cosmos 22 Rocket 4.3 01:11:59 10° N 01:17:51 88° W 01:23:36 10° S
Landsat 5 3.8 01:14:14 10° S 01:18:00 42° W 01:21:57 10° NNW
Cosmos 2058 3.4 01:14:42 10° N 01:18:53 65° E 01:23:03 10° SSE
Cosmos 1408 3.6 01:21:22 10° N 01:25:00 51° E 01:28:36 10° SSE
Cosmos 1709 Rocket 4.0 01:21:21 10° NNW 01:27:23 58° W 01:33:19 10° S
CZ-4B R/B 1.4 01:27:02 10° SSE 01:30:14 80° ENE 01:33:23 10° N
Cosmos 1892 2.6 01:27:10 10° N 01:30:59 77° W 01:34:47 10° S
ALOS 3.4 01:31:16 10° NNE 01:35:48 47° E 01:40:17 10° S
USA 238 DEB 4.2 01:28:42 10° NNW 01:35:58 76° NE 01:43:29 10° SE
USA 238 4.2 01:28:48 10° NNW 01:36:04 75° NE 01:43:36 10° SE
PAYLOAD A 4.2 01:31:08 10° N 01:36:16 56° WNW 01:41:13 10° SSW
OAO 2 Rocket 4.2 01:32:02 10° WSW 01:36:54 37° S 01:41:43 10° ESE
Cosmos 1340 4.2 01:33:26 10° N 01:37:02 41° ENE 01:40:35 10° SSE
Cosmos 1689 Rocket 4.0 01:35:05 10° SE 01:37:45 34° ENE 01:40:27 10° N
Meteor 1-31 Rocket 3.8 01:35:49 10° NNE 01:39:33 48° E 01:43:14 10° S
Cosmos 1484 Rocket 3.4 01:37:40 10° NNE 01:41:20 56° E 01:45:01 10° S
USA 267 3.4 01:35:10 10° SE 01:41:44 87° NE 01:48:18 10° NW
CENTAUR R/B 4.0 01:34:36 10° NNW 01:42:36 60° NE 01:51:18 10° SE
Atlas Centaur 2 3.8 01:38:30 10° WSW 01:44:19 30° S 01:51:02 10° SE
ASTEX 1 4.0 01:41:42 10° NNE 01:46:34 62° E 01:51:24 10° S
